Location: Campolattaro
(41.2833°N, 14.7333°E)
Time: 06:43:09
(UTC+00:00)

Cosmos 1900 - Pass Details

Date: 19 May 2025
Orbit: 678 x 738 km, 66.1° (Epoch: 14 June)

Event Time Altitude Azimuth Distance (km) Brightness Sun altitude
Rises 20:34:36 0° 328° (NNW) 3,159 9.3 -20.4°
Reaches altitude 10° 20:36:58 10° 329° (NNW) 2,239 8.1 -20.6°
Maximum altitude 20:42:06 87° 242° (WSW) 743 4.3 -21.2°
Enters shadow 20:43:29 50° 154° (SSE) 935 4.5 -21.3°
